Location: Igri�s
(42.2144°N, 0.4320°W)
Time: 18:51:49
(UTC+00:00)

Cosmos 1535 Rocket - Pass Details

Date: 13 August 2020
Orbit: 949 x 1003 km, 83.0° (Epoch: 20 September)

Event Time Altitude Azimuth Distance (km) Brightness Sun altitude
Rises 20:27:35 0° 183° (S) 3,630 7.2 -14.4°
Reaches altitude 10° 20:30:04 10° 183° (S) 2,681 6.5 -14.7°
Maximum altitude 20:36:12 84° 96° (E) 962 4.4 -15.7°
Drops below altitude 10° 20:42:20 10° 9° (N) 2,682 7.2 -16.6°
Sets 20:44:50 0° 9° (N) 3,631 7.9 -16.9°
